This demonstration page uses our WeatherBlox Daily Observations layout. Learn more.

39.92423, -83.80882

Hourly Observations for April 29, 2017

Temp ( °F °C ) Dew Point ( °F °C ) Humidity (%) Winds ( mph kmh ) Pressure ( in mb ) Visibility ( mi km ) Precip ( " mm )
12:56 am 00:56 Cloudy with Light Rain 57 13.9 55 12.8 93 93 SE 16 26 29.96 1014 10 16.0934 0.04 1.016
1:11 am 01:11 Cloudy with Nearby Thunderstorms 57 14 55 13 94 94 SE 16 26 29.94 1014 7 11.26538 0.05 1.27
1:29 am 01:29 Cloudy with Nearby Thunderstorms 57 14 55 13 94 94 ESE 15 24 29.94 1014 8 12.87472 0.1 2.54
1:56 am 01:56 Cloudy with Heavy Thunderstorms 57 13.9 56 13.3 96 96 SSE 22 35 29.96 1014 2.5 4.02335 0.33 8.382
2:03 am 02:03 Cloudy with Heavy Thunderstorms 57 14 55 13 94 94 SSE 24 39 29.94 1014 1.75 2.816345 0.15 3.81
2:08 am 02:08 Cloudy with Heavy Thunderstorms 57 14 55 13 94 94 SE 22 35 29.91 1013 2 3.21868 0.28 7.112
2:17 am 02:17 Cloudy with Light Thunderstorms 57 14 57 14 100 100 SSE 13 20 29.94 1014 8 12.87472 0.29 7.366
2:56 am 02:56 Cloudy with Light Rain 58 14.4 56 13.3 93 93 SE 8 13 29.94 1014 10 16.0934 0.31 7.874
3:26 am 03:26 Cloudy with Light Rain 57 14 55 13 94 94 SSE 12 19 29.94 1014 10 16.0934 0.02 0.508
3:35 am 03:35 Cloudy with Nearby Thunderstorms 57 14 55 13 94 94 SSE 10 17 29.94 1014 10 16.0934 0.03 0.762
3:56 am 03:56 Cloudy with Nearby Thunderstorms 58 14.4 56 13.3 93 93 SE 12 19 29.93 1014 8 12.87472 0.05 1.27
4:04 am 04:04 Cloudy with Light Rain 57 14 55 13 94 94 SSE 8 13 29.94 1014 9 14.48406 0.01 0.254
4:43 am 04:43 Cloudy with Thunderstorms 57 14 57 14 100 100 S 7 11 29.97 1015 5 8.0467 0.06 1.524
4:54 am 04:54 Cloudy with Rain 57 14 57 14 100 100 SSE 8 13 29.97 1015 6 9.65604 0.08 2.032
4:56 am 04:56 Cloudy with Rain 58 14.4 57 13.9 97 97 SE 9 15 29.94 1014 6 9.65604 0.09 2.286
5:02 am 05:02 Cloudy with Nearby Thunderstorms 57 14 57 14 100 100 SSE 7 11 29.94 1014 6 9.65604 0 0.0254
5:12 am 05:12 Cloudy with Nearby Thunderstorms 59 15 59 15 100 100 SW 9 15 29.97 1015 8 12.87472 0.02 0.508
5:15 am 05:15 Cloudy with Rain 61 16 59 15 94 94 SSE 10 17 29.94 1014 6 9.65604 0.05 1.27
5:21 am 05:21 Cloudy with Light Rain 61 16 59 15 94 94 S 8 13 29.97 1015 6 9.65604 0.06 1.524
5:28 am 05:28 Cloudy with Light Rain 61 16 61 16 100 100 SSE 6 9 29.94 1014 9 14.48406 0.06 1.524
5:56 am 05:56 Mostly Cloudy with Light Rain 60 15.6 59 15 96 96 N 6 9 29.94 1014 6 9.65604 0.07 1.778
6:04 am 06:04 Partly Cloudy with Mist and Fog 61 16 59 15 94 94 NNE 8 13 29.94 1014 5 8.0467 0 0.0254
6:47 am 06:47 Sunny with Mist and Fog 59 15 59 15 100 100 WSW 5 7 30 1016 2.5 4.02335 0 0.0254
6:56 am 06:56 Partly Cloudy with Mist and Fog 59 15 59 15 100 100 SSW 5 7 29.99 1016 1.75 2.816345 0 0.0254
7:00 am 07:00 Mostly Cloudy with Mist and Fog 59 15 59 15 100 100 Calm 30 1016 1.75 2.816345 0 0
7:09 am 07:09 Mostly Cloudy with Mist and Fog 61 16 59 15 94 94 Calm 30 1016 2.5 4.02335 0 0
7:22 am 07:22 Cloudy with Mist and Fog 61 16 61 16 100 100 Calm 30 1016 3 4.82802 0 0
7:56 am 07:56 Cloudy with Rain 61 16.1 61 16.1 100 100 Calm 30.02 1017 5 8.0467 0.01 0.254
8:21 am 08:21 Cloudy with Thunderstorms 63 17 61 16 94 94 Calm 30.03 1017 4 6.43736 0.02 0.508
8:27 am 08:27 Cloudy with Light Thunderstorms 61 16 61 16 100 100 E 8 13 30 1016 1.75 2.816345 0.02 0.508
8:38 am 08:38 Cloudy with Light Rain 61 16 61 16 100 100 E 5 7 30.03 1017 1.75 2.816345 0.04 1.016
8:45 am 08:45 Cloudy with Nearby Thunderstorms 61 16 61 16 100 100 NE 5 7 30.03 1017 2.5 4.02335 0.04 1.016
8:56 am 08:56 Cloudy with Nearby Thunderstorms 61 16.1 60 15.6 97 97 N 8 13 30.02 1017 2.5 4.02335 0.06 1.524
9:05 am 09:05 Cloudy with Nearby Thunderstorms 61 16 61 16 100 100 Calm 30.06 1018 2.5 4.02335 0.01 0.254
9:09 am 09:09 Cloudy with Nearby Thunderstorms 61 16 61 16 100 100 N 3 6 30.03 1017 2 3.21868 0.03 0.762
9:20 am 09:20 Cloudy with Heavy Thunderstorms 61 16 61 16 100 100 SSW 3 6 30.09 1019 2 3.21868 0.11 2.794
9:25 am 09:25 Cloudy with Heavy Thunderstorms 61 16 61 16 100 100 SSW 5 7 30.09 1019 1.75 2.816345 0.17 4.318
9:32 am 09:32 Cloudy with Heavy Thunderstorms 61 16 61 16 100 100 Calm 30.06 1018 1.5 2.41401 0.29 7.366
9:41 am 09:41 Cloudy with Thunderstorms 61 16 61 16 100 100 WSW 5 7 30.06 1018 2 3.21868 0.34 8.636
9:44 am 09:44 Cloudy with Thunderstorms 61 16 61 16 100 100 WSW 8 13 30.06 1018 4 6.43736 0.35 8.89
9:56 am 09:56 Cloudy with Thunderstorms 62 16.7 61 16.1 96 96 S 13 20 30.11 1020 4 6.43736 0.38 9.652
10:09 am 10:09 Cloudy with Nearby Thunderstorms 63 17 63 17 100 100 VRB 5 7 30.09 1019 6 9.65604 0.04 1.016
10:16 am 10:16 Cloudy with Thunderstorms 63 17 61 16 94 94 NE 12 19 30 1016 5 8.0467 0.06 1.524
10:56 am 10:56 Cloudy with Rain 62 16.7 61 16.1 96 96 SSW 9 15 30.11 1020 10 16.0934 0.15 3.81
11:07 am 11:07 Cloudy with Nearby Thunderstorms 63 17 61 16 94 94 S 12 19 30.12 1020 10 16.0934 0.03 0.762
11:31 am 11:31 Cloudy with Light Rain 63 17 61 16 94 94 SSW 7 11 30.12 1020 10 16.0934 0.09 2.286
11:39 am 11:39 Cloudy with Light Rain 63 17 61 16 94 94 S 9 15 30.12 1020 10 16.0934 0.09 2.286
11:53 am 11:53 Cloudy 63 17 63 17 100 100 S 9 15 30.12 1020 10 16.0934 0.09 2.286
11:56 am 11:56 Cloudy 63 17.2 62 16.7 97 97 S 6 9 30.11 1020 10 16.0934 0.09 2.286
12:16 pm 12:16 Mostly Cloudy 63 17 63 17 100 100 S 5 7 30.12 1020 10 16.0934 0 0
12:56 pm 12:56 Mostly Cloudy 65 18.3 63 17.2 93 93 S 6 9 30.11 1020 10 16.0934 0 0
1:21 pm 13:21 Mostly Cloudy 66 19 63 17 88 88 SSE 7 11 30.06 1018 10 16.0934 0 0
1:29 pm 13:29 Partly Cloudy 68 20 64 18 88 88 SE 9 15 30.06 1018 10 16.0934 0 0
1:56 pm 13:56 Sunny 70 21.1 65 18.3 84 84 SSE 10 17 30.08 1019 10 16.0934 0 0
2:56 pm 14:56 Mostly Sunny 72 22.2 63 17.2 73 73 S 7 11 30.07 1018 10 16.0934 0 0
3:56 pm 15:56 Sunny 74 23.3 64 17.8 71 71 SE 13 20 30.05 1018 8 12.87472 0 0
4:56 pm 16:56 Sunny 74 23.3 64 17.8 71 71 SE 8 13 30.04 1017 10 16.0934 0 0
5:56 pm 17:56 Sunny 74 23.3 64 17.8 71 71 ESE 9 15 30.03 1017 9 14.48406 0 0
6:56 pm 18:56 Sunny 73 22.8 65 18.3 76 76 E 9 15 30.01 1016 10 16.0934 0 0
7:56 pm 19:56 Partly Cloudy with Mist and Fog 60 15.6 58 14.4 93 93 ENE 13 20 30.02 1017 6 9.65604 0 0
8:04 pm 20:04 Mostly Cloudy with Mist and Fog 59 15 57 14 94 94 ENE 12 19 30.03 1017 5 8.0467 0 0
8:24 pm 20:24 Cloudy with Mist and Fog 57 14 55 13 94 94 NE 13 20 30.03 1017 3 4.82802 0 0
8:31 pm 20:31 Cloudy with Mist and Fog 57 14 55 13 94 94 ENE 16 26 30.03 1017 2 3.21868 0 0
8:38 pm 20:38 Cloudy with Mist and Fog 55 13 55 13 100 100 ENE 14 22 30.03 1017 1.75 2.816345 0 0
8:53 pm 20:53 Cloudy with Mist and Fog 55 13 55 13 100 100 ENE 14 22 30.03 1017 3 4.82802 0 0
8:56 pm 20:56 Cloudy with Mist and Fog 56 13.3 55 12.8 97 97 NE 13 20 30.03 1017 3 4.82802 0 0
9:56 pm 21:56 Cloudy with Mist and Fog 56 13.3 55 12.8 97 97 ENE 14 22 30.03 1017 4 6.43736 0 0
10:49 pm 22:49 Cloudy with Mist and Fog 55 13 55 13 100 100 NE 13 20 30.03 1017 2.5 4.02335 0 0
10:56 pm 22:56 Cloudy with Mist and Fog 56 13.3 55 12.8 97 97 ENE 12 19 30.04 1017 2.5 4.02335 0 0
11:32 pm 23:32 Cloudy with Mist and Fog 55 13 54 12 94 94 ENE 15 24 30 1016 1.25 2.011675 0 0
11:51 pm 23:51 Cloudy with Mist and Fog 55 13 54 12 94 94 ENE 14 22 30 1016 1 1.60934 0 0
11:56 pm 23:56 Cloudy with Mist and Fog 55 12.8 54 12.2 96 96 ENE 16 26 30 1016 1 1.60934 0 0

Powered by AerisWeather